CW6421 Weather Reports


time (UTC)temp
C
wind
direction
speed
KPH
gust
KPH
rain 1hr
cm
rain 24hr
cm
rain mn
cm
humidity
%
barometer
mb
20260508153534 14 79 12.9 22.5 0.00 0.05 0.00 63 1020.3
20260508152528 14 89 9.7 22.5 0.00 0.05 0.00 63 1020.3
20260508151530 14 49 14.5 19.3 0.00 0.05 0.00 63 1020.3
20260508150527 14 53 16.1 19.3 0.00 0.05 0.00 62 1020.4
20260508145527 15 48 12.9 12.9 0.00 0.05 0.00 62 1020.4
20260508144529 15 77 4.8 12.9 0.00 0.05 0.00 62 1020.4
20260508143528 15 80 8.0 12.9 0.00 0.05 0.00 62 1020.4
20260508142527 15 73 6.4 11.3 0.00 0.05 0.00 63 1020.4
20260508141529 15 37 4.8 12.9 0.00 0.05 0.00 63 1020.4
20260508140528 15 42 8.0 14.5 0.00 0.05 0.00 62 1020.8
20260508135531 15 30 8.0 12.9 0.00 0.05 0.00 62 1020.8
20260508134530 15 22 6.4 12.9 0.00 0.05 0.00 61 1020.8
20260508133526 16 24 9.7 11.3 0.00 0.05 0.00 61 1020.8
20260508132527 15 37 6.4 11.3 0.00 0.05 0.00 63 1020.8
20260508131529 14 66 1.6 12.9 0.00 0.05 0.00 64 1020.8
20260508130527 14 308 3.2 12.9 0.00 0.05 0.00 64 1020.9
20260508125526 14 309 3.2 16.1 0.00 0.05 0.00 64 1020.9
20260508124530 14 29 1.6 12.9 0.00 0.05 0.00 64 1020.9
20260508123526 14 27 1.6 12.9 0.00 0.05 0.00 64 1020.9
20260508122527 15 10 1.6 12.9 0.00 0.05 0.00 64 1020.9
20260508120527 13 311 6.4 16.1 0.00 0.05 0.00 66 1021.1
20260508115527 13 305 9.7 16.1 0.00 0.05 0.00 67 1021.1
20260508114530 13 55 6.4 17.7 0.00 0.05 0.00 68 1021.1
20260508113527 13 48 6.4 17.7 0.00 0.05 0.00 68 1021.1
20260508112526 13 55 6.4 16.1 0.00 0.05 0.00 69 1021.1
20260508111529 13 60 3.2 16.1 0.00 0.05 0.00 69 1021.1
20260508105527 12 55 6.4 12.9 0.00 0.05 0.00 69 1021.0
20260508104529 12 33 9.7 12.9 0.00 0.05 0.00 69 1021.0
20260508102528 12 32 9.7 12.9 0.00 0.05 0.00 70 1021.0
20260508101529 12 52 8.0 14.5 0.00 0.05 0.00 70 1021.0
20260508100528 12 51 8.0 12.9 0.00 0.05 0.00 71 1020.9
20260508095526 12 58 9.7 14.5 0.00 0.05 0.00 71 1020.9
20260508094529 12 44 9.7 14.5 0.00 0.05 0.00 72 1020.9
20260508092527 12 34 6.4 12.9 0.00 0.05 0.00 73 1020.9
20260508090527 12 45 8.0 16.1 0.00 0.05 0.00 74 1020.8
20260508085527 12 42 6.4 16.1 0.00 0.05 0.00 74 1020.8
20260508084529 12 60 4.8 19.3 0.00 0.05 0.00 74 1020.8
20260508082527 11 50 4.8 17.7 0.00 0.05 0.00 76 1020.8
20260508081530 11 59 4.8 17.7 0.00 0.05 0.00 77 1020.8
20260508080528 11 51 8.0 17.7 0.00 0.05 0.00 78 1020.4
20260508075526 11 47 6.4 16.1 0.00 0.05 0.00 78 1020.4
20260508074529 11 59 12.9 17.7 0.00 0.05 0.00 79 1020.4
20260508072526 10 60 9.7 17.7 0.00 0.05 0.00 81 1020.4
20260508071529 10 61 12.9 17.7 0.00 0.05 0.00 81 1020.4
20260508070527 10 64 11.3 16.1 0.00 0.05 0.00 82 1020.0
20260508064530 9 30 9.7 16.1 0.00 0.05 0.00 82 1020.0
20260508061529 8 45 9.7 16.1 0.00 0.05 0.00 84 1020.0
20260508060529 8 42 11.3 16.1 0.00 0.05 0.00 84 1019.8
20260508055527 8 34 11.3 16.1 0.00 0.05 0.00 84 1019.8
20260508054530 8 49 11.3 16.1 0.00 0.05 0.00 84 1019.8
20260508052527 8 55 12.9 16.1 0.00 0.05 0.00 84 1019.8
20260508051529 8 41 11.3 14.5 0.00 0.05 0.00 84 1019.8
20260508050528 8 44 11.3 12.9 0.00 0.05 0.00 84 1019.5
20260508045527 8 30 9.7 12.9 0.00 0.05 0.00 84 1019.5
20260508044528 8 40 8.0 11.3 0.00 0.05 0.00 84 1019.5
20260508043527 8 31 8.0 11.3 0.00 0.05 0.00 84 1019.5
20260508042528 7 32 6.4 12.9 0.00 0.05 0.00 84 1019.5
20260508041531 7 27 9.7 12.9 0.00 0.05 0.00 84 1019.5
20260508040529 7 35 8.0 11.3 0.00 0.05 0.00 84 1019.3
20260508034528 7 28 9.7 11.3 0.00 0.05 0.00 84 1019.3
20260508033527 7 16 9.7 11.3 0.00 0.05 0.00 84 1019.3
20260508032526 7 22 9.7 12.9 0.00 0.05 0.00 84 1019.3
20260508031528 7 22 8.0 11.3 0.00 0.05 0.00 84 1019.3
20260508030527 7 20 6.4 8.0 0.00 0.05 0.00 84 1019.2
20260508025527 7 15 6.4 6.4 0.00 0.05 0.00 84 1019.2
20260508024528 8 326 4.8 6.4 0.00 0.05 0.00 84 1019.2
20260508023527 8 324 4.8 4.8 0.00 0.05 0.00 84 1019.2
20260508022526 8 328 6.4 6.4 0.00 0.05 0.00 84 1019.2
20260508021528 8 279 3.2 4.8 0.00 0.05 0.00 84 1019.2
20260508020529 8 271 3.2 4.8 0.00 0.05 0.00 84 1019.0
20260508015526 8 276 1.6 4.8 0.00 0.05 0.00 84 1019.0
20260508013527 8 223 3.2 4.8 0.00 0.05 0.00 84 1019.0
20260508012526 8 221 1.6 4.8 0.00 0.05 0.00 84 1019.0
20260508011529 8 281 0.0 4.8 0.00 0.05 0.00 84 1019.0
20260508010527 8 265 3.2 4.8 0.00 0.05 0.00 84 1019.1
20260508005526 8 252 3.2 4.8 0.00 0.05 0.00 84 1019.1
20260508003527 8 251 6.4 8.0 0.00 0.05 0.00 84 1019.1
20260508002526 8 260 8.0 9.7 0.00 0.05 0.00 84 1019.1
20260508001529 8 259 4.8 4.8 0.00 0.05 0.00 85 1019.1
20260508000526 8 260 4.8 6.4 0.00 0.05 0.00 85 1019.2
20260507235527 8 262 3.2 6.4 0.00 0.05 0.00 85 1019.2
20260507234530 8 229 6.4 8.0 0.00 0.05 0.00 85 1019.2
20260507233526 8 222 4.8 8.0 0.00 0.05 0.00 85 1019.2
20260507232526 8 227 3.2 6.4 0.00 0.05 0.00 85 1019.2
20260507230528 8 240 4.8 6.4 0.00 0.05 0.00 85 1018.9
20260507225526 8 240 3.2 4.8 0.00 0.05 0.00 85 1018.9
20260507224530 8 6 1.6 6.4 0.00 0.05 0.00 85 1018.9
20260507223526 8 9 4.8 6.4 0.00 0.05 0.00 85 1018.9
20260507221528 9 356 0.0 6.4 0.00 0.05 0.00 85 1018.9
20260507220527 9 298 0.0 6.4 0.00 0.05 0.00 85 1018.7
20260507215527 9 298 1.6 6.4 0.00 0.05 0.00 85 1018.7
20260507214530 9 305 4.8 6.4 0.00 0.05 0.00 85 1018.7
20260507213527 9 307 3.2 6.4 0.00 0.05 0.00 85 1018.7
20260507212528 9 307 3.2 8.0 0.00 0.05 0.00 85 1018.7
20260507211528 10 308 4.8 6.4 0.00 0.05 0.00 85 1018.7
20260507210528 10 293 3.2 8.0 0.00 0.05 0.00 85 1018.1
20260507205527 10 290 6.4 8.0 0.00 0.05 0.00 85 1018.1
20260507204529 9 288 4.8 8.0 0.00 0.05 0.00 85 1018.1
20260507203526 10 289 3.2 8.0 0.00 0.05 0.00 85 1018.1
20260507202528 9 292 3.2 8.0 0.00 0.05 0.00 85 1018.1
20260507201531 9 270 8.0 8.0 0.00 0.05 0.00 85 1018.1
20260507200527 9 270 4.8 8.0 0.00 0.05 0.00 84 1017.5
20260507195527 9 270 4.8 6.4 0.00 0.05 0.00 84 1017.5
20260507194530 9 281 6.4 6.4 0.00 0.03 0.00 84 1017.5
20260507192526 9 285 6.4 8.0 0.00 0.03 0.00 83 1017.5
20260507184529 10 272 3.2 12.9 0.00 0.03 0.00 82 1017.1
20260507183526 10 262 3.2 12.9 0.00 0.03 0.00 82 1017.1
20260507182526 10 265 3.2 12.9 0.00 0.03 0.00 81 1017.1
20260507181529 10 152 1.6 11.3 0.00 0.03 0.00 81 1017.1
20260507180528 10 168 3.2 19.3 0.00 0.03 0.00 80 1016.6
20260507175527 10 162 1.6 17.7 0.00 0.03 0.00 80 1016.6
20260507174529 10 165 3.2 16.1 0.00 0.03 0.00 80 1016.6
20260507173525 10 161 4.8 19.3 0.00 0.03 0.00 80 1016.6
20260507172526 10 166 3.2 19.3 0.00 0.03 0.00 80 1016.6
20260507171530 10 155 6.4 16.1 0.00 0.00 0.00 79 1016.6
20260507170528 10 155 8.0 17.7 0.00 0.00 0.00 79 1016.5
20260507165526 10 159 4.8 17.7 0.00 0.00 0.00 78 1016.5
20260507164530 10 124 9.7 17.7 0.00 0.00 0.00 78 1016.5
20260507163526 10 120 8.0 20.9 0.00 0.00 0.00 78 1016.5
20260507162528 10 117 9.7 19.3 0.00 0.00 0.00 78 1016.5
20260507161530 10 121 11.3 17.7 0.00 0.00 0.00 78 1016.5
20260507160526 10 120 12.9 22.5 0.00 0.00 0.00 78 1016.1
20260507155527 10 117 11.3 24.1 0.00 0.00 0.00 78 1016.1
20260507154530 11 98 9.7 25.7 0.00 0.00 0.00 78 1016.1